Regional Weather Roundup
Issued by NWS Binghamton, NY

Current Version | Previous Version | Text Only | Print | Product List | Glossary On
Versions: 1 2 3 4 5 6 7 8 9 10 11 12 13 14 15 16 17 18 19 20 21 22 23 24 25 26 27
000
ASUS41 KBGM 230710
RWRBGM

REGIONAL WEATHER ROUNDUP
NATIONAL WEATHER SERVICE BINGHAMTON NY
300 AM EDT FRI JUN 23 2017

Note: "fair" indicates few or no clouds below 12,000 feet with no
significant weather and/or obstructions to visibility.

* = Station(s) that does not report precipitation, such as rain,
snow, etc, also no thunder or fog.

NYZ009-015>018-022>025-036-037-044>046-055>057-062-230800
...Central New York...

CITY           SKY/WX    TMP DP  RH WIND       PRES   REMARKS
Binghamton     NOT AVBL
Cortland       CLOUDY    72  66  83 SW5       29.81F
Dansville      PTCLDY    73  65  75 VRB5      29.78F
Elmira         NOT AVBL
Seneca Falls   PTSUNNY   77  68  73 S10       29.76F
Ithaca         NOT AVBL
Hamilton       CLOUDY    68  63  83 SE5       29.81F
Hornell        PTCLDY    72  64  78 E5        29.84F
Monticello     PTCLDY    68  64  88 CALM      29.90F
Norwich        PTCLDY    70  64  83 CALM      29.82F
Penn Yan       PTCLDY    73  65  75 SW7       29.79F
Rome           MOCLDY    66  63  90 E3        29.76F
Sidney         PTCLDY    68  68 100 CALM      29.83F
Syracuse       CLOUDY    76  67  73 S9        29.73F
$$

PAZ038>040-043-044-047-048-072-230800
...Northeast Pennsylvania...

CITY           SKY/WX    TMP DP  RH WIND       PRES   REMARKS
Hazleton         N/A     70  64  83 CALM      29.93F
Scranton       PTCLDY    73  68  84 CALM      29.86F
$$
&&
KEY
WCI = Wind Chill Index
VSB = Visibility
HX  = Heat Index
$$




USA.gov is the U.S. government's official web portal to all federal, state and local government web resources and services.